Total_Precipitation_Accumulation
1.67 1.19 1.17 0.97 0.73 0.61 0.82 1.17 0.95 0.90 0.92 0.61 0.77 0.72 0.65 0.43 0.35 0.44 0.86 0.31 0.22 0.19 0.16 0.18 0.24 0.42 0.23 0.20 0.13 0.29 0.57 0.34 0.25 0.23 0.39 0.42 0.13 0.07 0.15 0.39 0.29 0.18 0.11 0.13 0.08 0.07 0.05 0.03 0.03 0.04 0.03 0.04 0.06 0.06 0.05 0.06 0.07 0.14 0.09 0.11 0.15 0.28 0.48 0.54 0.42 0.24 0.40 0.20 0.26 0.42 0.77 0.53 0.61 0.38 0.26 0.39 0.41 0.24 0.23 0.44 0.46 0.31 0.54 0.31 0.54
1.07 1.83 1.05 1.61 1.20 0.98 1.07 1.28 1.60 1.12 1.16 1.08 0.89 0.78 0.64 0.49 0.43 0.52 0.33 0.61 0.30 0.24 0.19 0.12 0.27 0.27 0.28 0.22 0.22 0.29 0.20 0.50 0.49 0.24 0.32 0.20 0.25 0.16 0.17 0.18 0.17 0.08 0.08 0.10 0.10 0.09 0.05 0.03 0.04 0.05 0.05 0.15 0.09 0.09 0.11 0.07 0.05 0.09 0.09 0.07 0.11 0.14 0.19 0.21 0.14 0.33 0.45 0.34 0.60 0.51 0.37 0.37 0.48 0.37 0.42 0.24 0.53 0.45 0.44 0.50 0.66 0.96 0.60 0.43 0.44
1.36 1.66 1.17 1.19 1.47 1.73 2.61 1.91 1.54 1.63 1.28 0.82 0.65 0.69 0.67 0.64 0.30 0.45 0.44 0.46 0.40 0.21 0.16 0.23 0.12 0.13 0.22 0.25 0.27 0.23 0.21 0.53 0.26 0.28 0.25 0.28 0.31 0.23 0.36 0.32 0.30 0.12 0.10 0.14 0.12 0.13 0.17 0.15 0.08 0.14 0.23 0.25 0.31 0.09 0.18 0.19 0.12 0.08 0.19 0.11 0.08 0.11 0.29 0.26 0.29 0.36 0.26 0.25 0.27 0.53 0.59 0.61 0.70 0.54 0.44 0.39 0.52 0.40 0.36 0.34 0.44 0.57 0.53 0.54 0.90
1.92 1.07 1.27 1.20 1.24 1.26 1.61 1.40 1.45 2.17 1.49 1.14 1.12 1.06 0.61 0.46 0.28 0.42 0.50 0.27 0.17 0.12 0.10 0.32 0.23 0.51 0.40 0.16 0.19 0.14 0.67 0.52 0.50 0.32 0.29 0.23 0.36 0.17 0.41 0.41 0.25 0.25 0.09 0.10 0.19 0.32 0.28 0.22 0.27 0.38 0.35 0.43 0.34 0.35 0.44 0.15 0.10 0.03 0.07 0.05 0.06 0.11 0.29 0.17 0.47 0.34 0.28 0.22 0.50 0.30 0.21 0.33 0.77 0.94 0.80 0.60 0.85 0.56 0.56 0.39 0.35 0.36 0.46 0.38 0.30
1.97 1.27 1.87 1.67 1.49 1.22 1.40 1.40 1.68 1.68 0.98 0.94 0.96 1.10 0.82 0.80 0.63 0.50 0.39 0.29 0.30 0.29 0.36 0.21 0.33 0.33 0.34 0.28 0.50 0.42 0.38 0.32 0.42 0.57 0.55 0.35 0.37 0.64 0.69 0.53 0.29 0.11 0.08 0.14 0.23 0.57 0.28 0.30 0.45 0.62 0.40 0.42 0.32 0.37 0.30 0.19 0.17 0.28 0.35 0.13 0.18 0.24 0.23 0.38 0.43 0.52 0.41 0.46 0.46 0.47 0.40 0.44 0.78 1.01 1.07 0.74 0.74 0.59 0.50 0.26 0.46 0.38 0.20 0.30 0.47
2.00 1.86 1.54 1.20 1.63 1.80 1.75 1.50 1.26 1.19 0.82 0.64 0.66 0.66 0.73 0.58 0.61 0.45 0.43 0.53 0.59 0.42 0.27 0.46 0.61 0.60 0.63 0.46 0.51 0.56 0.59 0.63 0.57 0.77 0.50 0.66 0.37 0.56 0.28 0.23 0.17 0.25 0.09 0.59 0.84 0.88 0.87 0.56 0.89 1.38 0.54 0.51 0.27 0.36 0.36 0.41 0.58 0.49 0.32 0.23 0.28 0.38 0.34 0.50 0.45 0.53 0.33 0.33 0.69 0.53 0.91 0.49 0.98 1.27 1.36 0.87 0.55 0.55 0.35 0.36 0.48 0.29 0.20 0.22 0.49
1.66 1.36 0.95 0.79 1.30 2.09 1.63 1.61 1.81 1.10 0.56 0.72 0.57 0.47 0.36 0.32 0.46 0.41 0.38 0.43 0.59 0.46 0.50 0.56 0.73 0.72 0.50 0.30 0.40 0.36 0.40 0.64 1.12 1.18 0.90 0.93 0.79 0.48 0.26 0.21 0.10 0.31 0.40 0.71 0.71 1.20 1.25 1.16 1.22 1.15 0.93 0.62 0.58 0.76 0.54 0.75 0.53 0.57 0.31 0.27 0.19 0.36 0.39 0.38 0.32 0.48 0.85 0.41 0.47 0.74 0.64 0.85 0.97 1.41 1.55 0.91 0.89 0.67 0.41 0.26 0.56 0.49 0.41 0.17 0.26
1.46 1.13 0.74 0.68 0.74 1.87 1.57 1.67 1.57 1.00 1.23 0.99 0.74 0.66 0.87 0.51 0.37 0.36 0.67 0.65 0.64 0.73 0.72 0.65 0.60 0.53 0.41 0.33 0.40 0.63 0.85 0.77 0.62 1.01 0.62 0.42 0.39 0.32 0.20 0.32 0.86 0.69 0.37 0.57 0.70 0.98 1.38 1.41 1.61 1.09 1.16 0.81 0.49 0.59 0.79 0.69 0.60 0.44 0.25 0.33 0.38 0.40 0.38 0.25 0.52 0.61 0.66 0.49 0.57 1.03 1.01 1.12 1.07 1.05 1.20 0.97 0.92 0.68 0.44 0.49 0.48 0.52 0.35 0.66 0.44
2.91 2.08 1.87 1.46 1.57 1.63 1.96 2.30 2.30 1.90 1.25 1.26 1.16 0.81 0.93 0.91 0.86 0.98 0.67 0.85 1.47 1.22 1.01 0.47 0.42 0.51 0.38 0.29 0.53 0.41 0.63 0.54 0.32 0.31 0.57 0.37 0.36 0.37 0.43 0.50 0.52 0.34 0.76 0.51 0.59 0.89 1.67 1.48 1.32 0.73 0.74 0.56 0.37 0.60 0.39 0.45 0.79 0.79 0.80 0.65 0.80 0.47 0.30 0.41 0.45 0.43 0.84 0.64 0.97 0.89 1.26 0.93 1.00 0.74 0.81 0.80 0.65 0.45 0.66 0.60 0.61 0.73 0.68 0.77 1.03
3.27 2.67 2.29 2.60 1.76 1.92 2.27 2.06 2.35 2.95 2.19 2.84 3.20 2.12 1.88 2.34 2.24 1.66 1.16 1.34 1.22 1.18 0.75 0.42 0.34 0.36 0.33 0.23 0.30 0.55 0.63 0.58 0.30 0.19 0.23 0.39 0.66 0.39 0.35 0.38 0.69 0.53 0.49 0.48 0.59 0.93 1.05 1.34 1.84 0.58 0.54 0.57 0.51 0.39 0.29 0.17 0.18 0.45 0.50 0.53 0.53 1.10 0.55 0.59 0.62 0.59 0.80 0.91 0.80 0.89 1.16 1.32 0.84 1.23 0.82 0.92 0.84 0.78 0.90 0.98 0.78 1.27 0.90 1.01 1.12
2.62 2.26 2.45 3.63 3.24 2.97 3.67 3.03 2.27 2.82 2.59 2.60 3.04 2.75 2.13 1.67 1.31 1.45 1.24 0.96 0.98 0.76 0.83 0.52 0.36 0.55 0.64 0.61 0.67 0.79 0.61 0.85 0.40 0.52 0.21 0.13 0.32 0.39 0.21 0.41 0.60 0.56 0.53 0.42 1.10 1.41 1.10 1.22 0.80 0.55 0.82 0.86 0.82 0.65 0.47 0.37 0.26 0.23 0.45 0.27 0.30 1.08 1.28 0.69 0.55 0.54 0.62 1.20 0.85 1.01 0.84 0.97 1.21 0.81 0.75 0.61 0.75 0.97 1.14 0.58 0.91 1.15 1.05 1.09 1.06
4.56 3.92 3.86 4.20 3.91 3.05 2.98 3.77 2.98 2.45 2.45 3.42 3.04 2.45 2.07 1.49 1.52 1.22 0.76 0.76 0.65 0.61 0.69 0.44 0.37 0.34 0.34 0.51 0.65 0.80 0.94 0.57 0.61 0.54 0.09 0.02 0.01 0.13 0.33 0.37 0.81 0.83 0.83 0.78 0.71 0.75 1.13 1.19 1.15 1.49 1.44 2.05 1.37 1.20 0.87 0.74 0.65 0.59 0.56 0.41 0.62 0.96 1.33 1.25 1.46 1.17 1.22 0.98 1.31 1.01 0.90 1.18 1.48 1.66 1.11 0.98 1.06 1.06 0.66 0.79 1.08 0.98 1.24 2.38 1.24
4.43 4.38 4.73 4.42 4.59 3.55 3.87 4.61 3.41 2.89 3.45 4.40 3.85 3.54 2.16 1.97 1.90 1.48 0.78 0.97 1.12 0.60 0.56 0.57 0.56 0.58 0.41 0.59 0.85 0.45 0.46 0.99 0.11 0.07 0.01 0.01 0.01 0.06 0.31 0.73 0.60 0.72 1.02 1.17 1.12 0.84 1.19 1.37 1.66 1.66 1.84 1.63 1.60 1.19 1.03 0.70 0.89 0.76 0.68 0.61 0.66 0.70 0.78 0.95 0.85 0.98 1.18 1.21 0.96 0.97 0.77 1.05 0.94 1.51 0.95 0.94 1.63 0.89 1.49 2.00 2.03 1.71 1.13 1.06 1.39
5.91 5.78 5.20 5.04 4.10 2.97 3.60 3.32 3.07 3.29 3.65 4.44 3.95 2.46 2.59 1.62 1.87 2.74 1.60 1.14 0.93 0.63 0.67 0.74 0.48 0.58 0.34 0.50 0.65 0.97 0.90 0.55 0.30 0.11 0.02 0.01 0.02 0.06 0.28 0.71 0.98 0.77 0.97 1.63 2.00 1.70 2.21 1.73 2.00 2.04 1.34 1.16 0.99 1.31 1.46 1.22 1.43 1.15 1.21 1.40 1.52 0.94 0.97 0.97 0.80 0.85 1.12 1.22 1.32 1.66 1.94 2.21 2.02 1.29 0.85 1.51 1.38 1.34 1.40 1.83 2.44 2.09 2.27 1.20 1.40
6.53 5.62 5.23 5.42 4.79 3.65 4.06 3.99 3.96 4.12 4.57 4.03 3.10 3.99 2.77 2.97 3.11 3.38 2.81 2.81 2.23 1.12 0.67 0.49 0.50 0.43 0.39 0.62 0.79 0.67 0.93 0.76 0.13 0.05 0.02 0.01 0.02 0.07 0.12 0.73 0.83 0.49 0.80 1.01 1.24 1.97 2.25 2.66 2.21 1.37 0.93 1.02 0.84 1.03 1.51 2.36 1.92 1.64 1.84 2.05 1.32 1.80 1.96 1.92 1.69 1.83 2.10 1.94 1.35 2.04 1.51 1.80 1.15 0.55 0.76 1.85 1.91 2.54 2.74 2.73 3.53 2.86 1.05 1.35 1.17
4.58 4.31 5.62 5.43 3.98 3.54 3.38 3.67 4.33 5.48 5.36 4.64 3.71 3.71 3.72 3.62 4.27 4.05 3.11 2.57 2.17 1.22 1.28 0.89 0.82 0.91 0.93 0.81 0.43 0.59 0.45 0.20 0.03 0.03 0.02 0.02 0.02 0.03 0.17 0.50 0.57 0.42 0.83 1.89 1.49 2.32 2.35 2.18 1.97 1.52 1.76 1.03 0.92 0.93 2.02 2.39 1.85 2.22 2.02 1.79 1.74 1.73 1.96 1.78 2.07 2.15 1.51 1.87 1.47 2.33 1.79 1.24 1.04 1.29 2.05 2.07 1.92 2.88 3.26 3.34 1.71 1.53 1.55 1.16 1.08
3.30 3.93 4.15 4.14 3.78 3.32 3.40 4.54 4.04 3.89 3.91 4.31 4.26 4.53 5.00 5.14 4.40 4.02 3.17 2.75 2.17 1.35 1.72 1.46 1.24 1.92 1.35 1.01 0.76 0.68 0.37 0.42 0.09 0.06 0.05 0.03 0.04 0.05 0.19 0.44 0.71 0.91 1.23 1.45 1.37 2.49 2.47 1.88 1.78 1.35 1.14 1.31 1.79 1.50 1.49 1.72 2.22 1.94 2.02 1.81 2.20 2.28 3.98 2.69 1.66 0.99 1.23 1.54 2.80 1.38 2.26 2.77 2.24 1.82 1.87 2.13 2.74 4.10 5.70 3.70 0.82 1.60 2.65 2.14 1.70
4.09 4.10 4.04 3.64 4.72 3.91 4.37 4.22 4.81 4.92 3.95 3.94 3.97 4.92 5.17 5.05 4.80 5.00 4.20 3.95 4.48 4.62 3.36 2.33 3.31 3.11 2.47 1.29 0.75 0.53 0.30 0.21 0.30 0.36 0.36 0.04 0.05 0.16 0.67 0.85 0.81 1.50 1.63 2.17 1.99 1.86 1.74 1.50 0.90 1.05 1.99 1.56 0.72 1.35 1.71 1.68 2.09 2.70 2.12 2.22 2.14 2.39 2.64 2.32 1.90 1.80 0.78 0.63 0.85 1.08 1.31 1.36 1.27 0.99 1.24 2.16 5.72 4.97 5.19 2.00 0.85 3.07 3.46 2.88 2.00
3.40 3.64 3.37 2.98 3.19 3.12 3.59 4.18 4.41 5.11 5.12 4.29 4.87 5.61 5.00 4.60 4.16 4.04 4.87 4.07 4.86 5.49 4.25 3.71 5.35 4.26 3.20 2.46 1.01 0.81 0.52 0.86 0.77 0.86 1.36 1.08 1.12 1.31 1.28 1.55 1.86 1.90 1.99 2.99 3.37 1.78 2.47 1.82 1.16 1.28 1.56 1.15 1.02 2.02 3.24 2.41 1.55 1.68 2.40 2.84 2.58 2.27 2.06 2.08 1.96 2.15 1.90 0.93 0.90 0.72 0.84 0.82 0.59 0.41 0.90 1.22 1.54 2.78 3.20 3.58 3.88 3.17 3.35 2.21 3.41
2.28 2.48 2.92 3.14 2.87 2.91 3.56 4.24 3.57 4.11 3.90 4.61 6.19 5.76 6.23 6.52 5.77 4.67 5.15 6.28 6.37 4.57 4.94 5.59 5.16 3.94 2.88 2.40 2.28 1.77 1.72 1.50 2.03 1.18 1.47 1.70 0.81 2.78 3.53 2.02 1.88 2.34 2.93 2.58 2.50 2.02 2.52 1.83 1.46 1.12 1.12 1.41 1.32 1.54 1.84 1.28 1.71 2.58 3.10 2.45 1.86 2.55 2.19 1.99 2.08 2.37 1.47 1.80 1.85 1.60 1.92 1.12 1.25 1.06 1.00 1.17 1.63 2.33 2.15 2.93 3.97 3.88 3.67 4.74 3.72
1.82 2.38 2.39 1.96 2.33 2.67 2.97 3.59 3.13 2.75 3.24 4.03 3.47 4.11 4.76 4.95 5.64 5.96 6.79 6.81 6.74 6.36 5.55 5.38 5.22 4.13 4.04 3.77 3.54 4.72 4.76 4.03 3.53 2.07 1.85 2.24 1.79 2.80 4.81 4.18 3.18 2.29 2.05 2.91 2.06 2.54 2.70 2.62 2.43 2.07 1.67 1.21 1.01 1.39 1.87 2.62 2.75 2.13 1.50 1.61 1.39 2.06 2.68 2.37 2.59 2.84 1.64 1.27 1.50 1.44 1.42 1.41 1.77 1.46 1.78 1.45 2.45 1.94 1.70 3.51 3.98 5.25 5.57 6.90 4.85
1.15 1.58 2.20 1.97 2.49 3.55 4.51 4.81 4.55 3.97 3.93 3.93 3.37 2.99 3.39 3.91 4.40 4.67 5.47 6.26 7.52 8.62 8.27 6.58 6.10 5.03 5.04 4.62 4.26 4.22 5.07 4.05 5.34 4.09 3.45 3.18 2.92 2.97 3.82 2.75 2.25 2.34 2.92 2.69 2.87 2.57 2.46 3.29 3.48 2.63 2.84 3.06 2.37 1.12 1.14 1.73 2.33 2.42 0.99 0.81 1.17 2.87 4.40 4.17 3.02 2.79 3.48 3.31 1.40 1.90 1.38 2.53 1.31 1.68 1.41 1.63 1.76 2.32 2.75 2.74 4.27 4.75 5.28 3.37 2.90
1.30 1.76 1.90 2.81 3.04 2.70 2.60 3.16 5.07 5.55 5.41 3.41 2.99 3.75 3.31 2.83 3.18 4.40 4.57 5.36 6.50 6.15 4.61 4.61 5.03 5.57 5.86 5.66 5.56 5.10 5.15 5.62 3.54 3.99 2.35 2.62 2.22 2.64 2.22 2.84 3.66 4.16 4.21 5.01 3.89 3.64 3.70 3.59 3.46 3.96 4.27 3.60 3.12 2.17 1.65 1.87 2.05 1.83 1.19 1.21 1.45 2.82 4.98 7.88 5.34 3.59 2.09 1.84 1.88 1.40 1.48 1.45 2.02 3.09 3.03 2.03 2.45 2.55 2.43 2.33 3.36 5.37 3.38 2.67 2.88
0.45 1.01 1.28 1.20 1.80 1.67 1.64 1.84 3.02 3.52 2.34 1.91 1.86 1.79 2.09 2.61 3.34 4.03 3.57 3.73 4.63 5.36 6.61 5.70 5.33 5.44 5.41 5.63 6.16 5.97 6.40 6.34 6.21 5.20 4.29 3.55 3.21 2.62 2.96 3.88 3.72 5.50 3.97 3.43 3.82 3.94 4.13 3.90 4.33 4.48 4.92 4.73 3.16 2.57 2.91 2.91 2.72 2.38 2.43 2.10 2.48 3.38 5.26 5.32 7.49 6.67 3.65 1.96 1.58 1.54 1.59 1.65 1.76 1.66 1.77 1.83 2.13 2.44 3.09 3.08 3.25 3.39 2.75 2.34 2.56
0.35 0.83 1.19 1.21 1.00 0.69 0.95 1.72 3.16 2.19 1.40 1.44 1.84 1.71 1.71 1.88 2.25 2.20 1.80 1.86 2.33 2.83 3.65 4.25 4.62 5.29 6.06 6.41 7.89 7.83 6.93 5.99 6.79 6.25 5.07 4.64 4.39 3.78 3.23 2.72 3.42 4.05 3.50 3.15 2.52 2.75 2.72 2.69 3.37 3.96 3.42 3.24 2.82 3.06 3.38 3.33 3.39 2.92 2.81 2.75 2.47 2.95 4.24 4.83 5.19 6.51 3.70 2.20 2.14 2.01 1.71 1.86 1.73 1.68 1.66 1.69 1.78 2.11 2.01 1.70 1.95 1.66 1.44 1.51 1.50
0.36 0.46 0.49 0.69 0.73 0.53 0.40 0.39 0.60 1.12 0.75 0.77 0.85 0.91 1.03 1.50 1.37 1.74 1.44 1.24 1.32 1.39 1.62 2.10 2.61 3.25 3.92 3.88 3.74 3.89 4.44 5.28 4.95 5.99 6.85 5.82 6.14 5.91 5.19 4.65 5.48 6.04 4.42 4.10 3.41 3.23 3.30 4.04 4.17 3.75 3.50 3.37 3.92 3.83 4.20 4.06 3.56 3.44 3.07 2.75 2.42 2.77 4.11 4.42 3.63 4.37 3.54 1.99 1.96 1.92 2.14 2.42 1.69 1.51 1.45 1.33 1.43 1.43 1.65 1.72 1.45 1.34 1.15 0.95 0.81
0.10 0.16 0.32 0.23 0.27 0.13 0.10 0.08 0.07 0.10 0.17 0.19 0.23 0.45 0.80 0.61 0.72 1.05 1.54 1.09 1.39 1.88 2.10 2.12 2.11 1.90 1.99 2.34 2.79 2.90 3.05 2.99 2.62 3.09 4.23 4.68 4.32 4.18 3.66 4.74 5.03 5.83 6.66 6.24 5.14 5.41 4.64 5.05 4.68 3.71 3.44 3.35 3.13 3.18 3.48 3.38 3.34 3.05 2.96 2.65 2.33 2.53 2.38 2.50 2.47 3.17 2.30 1.63 1.49 1.45 2.15 1.97 1.86 1.42 1.57 1.70 2.02 2.17 2.16 1.58 1.08 0.91 0.93 0.82 0.83
0.40 0.43 0.56 0.67 0.76 0.85 1.05 0.87 0.21 0.01 0.03 0.06 0.12 0.16 0.53 0.91 0.90 0.77 0.59 0.59 0.72 0.56 0.67 0.66 0.69 0.77 1.11 1.93 2.66 2.84 2.40 1.89 1.98 2.08 2.36 2.46 2.58 3.23 3.27 3.10 3.12 3.56 3.60 3.08 3.54 3.60 5.03 4.78 4.67 4.84 3.89 3.58 3.70 3.19 2.60 2.15 2.05 1.90 2.12 2.17 1.87 1.85 1.53 1.37 1.81 2.17 1.49 1.66 1.78 1.82 2.25 2.09 1.70 1.37 1.58 1.87 1.67 1.32 1.12 0.83 0.88 0.96 0.83 0.86 0.87
1.03 0.99 0.77 0.85 0.65 0.69 0.50 0.19 0.14 0.39 0.37 0.93 1.08 1.05 0.43 0.34 0.43 0.54 0.42 0.34 0.31 0.38 0.39 0.53 0.59 0.75 1.30 1.62 1.77 0.91 0.94 1.14 1.45 1.48 1.59 1.63 1.81 1.91 1.59 1.82 1.67 1.63 1.74 1.93 1.84 2.06 3.17 3.25 3.42 2.62 2.70 2.44 2.38 2.00 1.84 1.80 1.88 1.78 1.72 1.81 1.56 2.24 1.64 1.53 1.73 1.89 1.55 2.09 1.58 2.01 1.87 1.38 1.36 1.44 1.50 1.46 0.84 0.61 0.52 0.51 0.51 0.90 0.63 0.71 0.53
0.41 0.42 0.42 0.40 0.22 0.32 0.12 0.08 0.09 0.11 0.33 0.55 0.64 0.25 0.04 0.05 0.09 0.13 0.18 0.17 0.16 0.13 0.10 0.23 0.35 0.44 0.59 0.33 0.35 0.39 0.50 0.83 0.76 0.57 0.48 0.70 0.76 0.97 0.91 0.98 0.89 1.11 1.11 1.73 2.20 3.33 2.30 1.48 1.31 1.23 1.01 1.20 1.44 1.36 1.74 1.94 1.70 1.60 1.24 1.14 1.13 1.37 1.41 1.49 1.45 1.89 1.07 1.22 1.35 1.80 1.81 1.85 1.53 1.28 0.75 0.84 0.53 0.52 0.44 0.44 0.65 0.85 1.00 1.00 0.66
0.59 0.57 0.51 0.34 0.21 0.22 0.14 0.11 0.09 0.08 0.09 0.03 0.13 0.16 0.10 0.07 0.09 0.10 0.12 0.12 0.23 0.52 0.79 0.86 0.80 0.76 0.74 0.85 0.67 0.62 0.48 0.86 0.61 0.24 0.39 0.58 0.43 0.51 0.80 0.82 1.63 1.19 2.32 3.89 2.44 1.42 1.00 0.99 0.77 0.86 0.95 1.06 0.86 0.68 0.70 0.76 0.76 0.82 0.87 0.90 0.98 0.82 0.70 0.67 0.59 0.64 0.76 0.73 1.22 1.53 1.43 0.97 0.76 0.65 0.72 0.73 0.44 0.42 0.72 0.54 0.49 0.44 0.72 0.62 0.64
1.61 1.44 1.47 1.46 1.00 0.92 1.14 1.07 1.00 0.62 1.02 1.28 1.13 1.22 1.07 0.89 0.47 0.36 0.69 0.76 0.46 0.36 0.40 0.58 0.47 0.65 0.58 0.59 0.77 1.35 1.19 1.40 1.60 1.39 1.58 1.24 1.03 0.58 0.26 0.88 2.08 2.18 2.43 2.27 1.49 0.82 0.66 0.54 0.51 0.72 0.78 0.78 0.80 0.61 0.60 0.99 0.83 0.87 0.57 0.43 0.51 0.41 0.35 0.46 0.64 1.01 0.76 0.42 1.12 1.01 0.68 0.44 0.65 0.99 1.51 1.61 1.49 1.29 0.98 0.62 0.66 0.71 0.52 0.64 0.79
1.20 1.14 1.33 1.21 1.55 1.47 1.10 1.12 1.37 1.89 1.74 1.41 1.54 1.38 0.73 0.52 0.42 0.58 1.02 0.86 1.01 0.96 0.80 0.91 0.98 1.14 1.43 0.86 0.81 1.06 0.92 0.59 0.49 0.25 0.24 0.10 0.09 0.12 0.27 1.12 1.95 2.30 2.46 2.31 0.93 0.85 1.15 1.17 1.23 0.76 0.80 0.61 0.83 0.96 0.71 0.54 0.41 0.45 0.25 0.28 0.19 0.33 0.35 0.43 1.25 0.79 0.27 0.52 0.42 0.48 0.57 0.92 1.44 1.60 1.61 1.17 0.95 0.94 0.78 0.51 0.40 0.41 0.35 0.63 0.60
2.11 1.89 1.73 1.22 1.52 2.00 2.32 2.24 2.02 1.56 1.06 1.77 1.60 1.04 1.18 1.20 0.80 0.53 0.48 0.73 0.95 0.74 0.60 1.02 0.97 1.16 1.38 1.01 0.66 1.25 0.88 0.66 0.70 1.14 2.13 2.18 2.17 2.01 1.71 1.80 2.58 4.05 4.03 3.68 3.25 2.94 2.69 2.23 2.12 1.52 1.43 1.19 1.40 1.61 0.96 0.43 0.14 0.16 0.16 0.32 0.12 0.20 0.24 1.07 1.01 0.67 0.37 0.35 0.35 0.60 1.01 1.14 1.35 1.48 1.32 1.06 1.01 0.82 0.70 0.54 0.33 0.68 0.56 0.34 0.45
1.71 1.43 1.01 1.12 1.83 1.77 1.43 1.57 1.87 2.96 3.13 2.29 1.71 1.75 1.48 1.23 2.05 2.15 0.88 0.52 0.92 1.30 1.32 0.76 0.74 0.40 0.53 0.65 0.97 1.19 0.78 0.41 0.25 0.17 0.26 0.31 0.47 0.53 0.98 1.60 1.78 1.44 2.19 2.38 2.82 2.69 2.07 1.99 1.78 1.69 1.45 0.65 0.40 0.28 0.31 0.67 0.82 0.69 0.41 0.43 0.38 0.47 0.68 0.68 0.92 1.35 1.03 1.10 0.95 1.06 1.24 1.13 1.21 0.91 0.81 0.78 0.93 0.91 0.66 0.67 0.74 0.64 0.66 0.50 0.45
1.26 1.26 1.47 1.40 1.50 1.69 1.54 2.02 2.20 2.27 2.66 2.08 1.85 2.75 2.81 2.35 1.75 1.50 1.59 1.62 2.28 1.76 1.65 1.52 1.61 1.54 1.56 1.46 1.29 1.16 1.55 1.71 1.25 0.56 1.16 1.36 1.08 1.43 2.53 3.36 3.35 3.50 2.42 1.59 1.38 1.06 0.51 0.46 0.40 0.47 0.45 0.78 0.81 1.06 1.21 1.26 0.87 0.76 0.54 0.66 0.70 0.59 0.95 1.22 1.55 1.59 0.69 0.72 0.81 0.87 0.94 0.95 0.75 0.86 0.98 0.90 1.06 0.96 0.87 0.64 0.65 0.82 1.05 0.90 0.84
0.64 0.80 1.10 1.47 1.51 1.34 1.77 2.03 1.81 1.94 1.64 1.96 2.18 3.04 2.94 2.92 2.61 2.03 2.05 1.68 1.88 1.55 1.18 1.10 1.17 1.40 1.27 1.28 0.72 0.76 0.87 1.24 2.14 1.98 2.04 1.88 1.61 2.97 2.62 0.90 0.88 1.36 0.88 0.91 0.80 0.72 0.41 0.36 0.39 0.50 0.54 1.29 1.54 1.31 1.19 1.47 1.39 1.26 1.10 1.27 1.01 1.61 3.13 1.41 1.78 1.59 1.07 0.85 0.75 0.88 1.06 0.91 1.09 1.33 1.21 1.43 1.51 1.27 0.81 0.90 0.81 0.87 0.94 0.71 0.69
0.75 0.83 0.77 0.40 0.81 0.91 0.95 1.53 2.11 1.37 1.72 1.41 1.51 1.60 1.37 1.21 1.06 1.74 1.70 1.60 1.85 2.06 1.30 1.09 1.59 1.91 1.33 1.17 1.40 1.34 0.84 0.84 2.24 3.91 3.20 2.30 1.82 1.98 1.97 1.73 1.12 0.65 0.53 0.57 0.40 0.26 0.33 0.44 0.35 0.60 0.65 1.50 1.43 1.23 1.14 1.17 1.33 1.62 1.76 1.98 3.27 5.73 2.26 1.61 1.90 2.36 1.39 1.14 1.03 1.43 1.35 1.34 1.22 1.49 1.92 2.39 1.44 1.10 1.02 1.27 1.40 1.29 1.23 0.97 1.05
0.62 0.77 0.91 0.90 1.09 1.11 1.00 1.38 1.55 2.04 1.96 1.99 1.76 1.77 1.28 1.07 1.20 1.32 1.20 1.24 1.83 2.43 2.80 2.42 1.92 1.59 1.58 1.31 1.00 2.00 1.98 1.96 1.50 0.82 0.90 1.08 1.01 1.02 1.23 1.39 1.27 1.17 1.09 0.99 0.94 1.01 1.26 1.37 1.07 1.36 1.40 1.64 1.66 2.11 1.60 1.56 1.61 2.32 2.43 2.69 4.43 4.31 1.94 1.52 1.32 1.95 1.28 1.12 1.45 1.67 1.17 1.03 0.98 1.36 1.85 1.92 1.46 1.43 1.59 1.54 1.37 1.32 1.22 1.21 1.30
0.90 1.47 1.70 0.87 0.90 1.55 1.46 1.67 1.20 1.96 2.22 1.10 0.75 0.62 0.75 1.18 1.50 1.84 2.20 2.39 1.92 1.71 1.55 1.75 2.57 3.01 2.62 2.52 2.45 1.90 1.54 2.26 2.20 2.59 1.86 0.84 0.66 0.92 0.82 0.79 1.19 1.06 2.16 1.19 1.48 1.49 1.11 1.17 1.55 1.50 1.40 2.48 2.02 1.83 1.87 1.70 1.45 1.50 2.21 2.67 5.11 3.06 1.47 1.91 1.96 2.33 2.30 1.34 1.07 0.85 0.65 0.67 0.99 1.95 2.59 2.83 2.65 1.89 1.43 1.52 1.59 1.43 1.47 1.34 1.77
1.65 1.72 0.96 0.62 0.66 0.97 1.32 1.59 1.13 0.49 0.43 0.34 0.24 0.20 0.27 0.24 0.37 0.41 1.21 1.78 1.87 1.92 1.92 1.94 1.45 1.37 1.45 1.73 1.99 2.30 3.25 2.97 2.49 1.65 1.89 2.39 1.55 1.15 1.03 1.16 0.97 2.71 1.51 1.27 1.25 1.63 1.35 1.13 1.18 1.28 1.32 2.44 3.28 2.85 2.18 1.65 1.58 1.68 2.45 3.58 4.93 2.69 1.82 1.73 1.23 0.94 0.85 0.91 1.23 1.35 1.42 1.46 2.08 2.53 1.99 2.22 2.79 2.69 2.49 2.20 1.85 1.82 2.69 3.51 3.75
2.66 2.12 1.63 1.11 1.08 1.26 1.64 1.25 0.59 0.42 0.47 0.55 0.70 0.42 0.27 0.40 0.58 0.33 0.26 0.32 0.36 0.39 0.68 0.72 0.82 0.96 1.00 1.14 1.30 1.58 3.93 2.34 2.63 2.13 1.45 1.57 2.07 2.11 1.93 1.24 1.06 1.10 1.59 1.90 1.58 1.29 1.15 1.54 1.43 1.17 1.23 2.45 3.15 3.10 2.18 1.15 1.12 1.56 1.92 3.06 4.13 2.63 1.78 1.26 1.36 2.02 2.03 1.57 1.09 1.31 1.66 1.90 1.96 2.79 3.92 2.68 2.34 2.44 2.41 3.11 3.51 3.61 3.12 3.01 2.81
1.69 2.40 2.51 2.60 2.75 2.91 1.81 2.21 1.81 2.31 1.17 1.18 1.19 0.64 0.61 1.55 1.67 2.05 1.61 1.37 1.10 0.50 0.34 0.41 0.55 0.69 0.70 0.66 0.67 0.77 0.98 1.20 1.44 1.59 1.64 1.50 1.76 2.12 2.46 2.12 1.24 1.14 1.42 1.49 1.23 1.21 1.00 0.99 1.28 1.21 1.32 1.28 1.71 3.05 3.89 2.78 1.69 1.44 2.04 4.06 3.09 1.64 1.87 1.86 1.71 1.35 1.74 2.32 2.47 2.44 2.24 2.08 2.19 2.70 3.26 4.22 3.53 2.43 2.86 3.50 3.13 2.69 3.18 3.10 3.06
0.71 1.95 2.38 1.81 1.69 2.06 2.77 3.24 3.15 2.63 1.48 1.51 1.34 1.99 2.51 1.91 1.19 1.13 1.62 1.46 1.02 1.12 0.84 0.43 0.69 0.30 0.41 0.39 0.39 0.44 0.58 0.76 0.94 1.18 1.34 1.23 1.32 1.44 1.55 2.07 1.98 1.71 1.79 2.35 2.24 2.29 2.40 1.78 1.23 1.68 1.89 1.69 1.80 2.71 2.95 2.96 4.34 4.01 2.47 2.19 2.43 2.44 1.71 1.94 2.42 2.14 2.36 2.27 1.81 2.51 3.06 3.50 3.35 2.94 2.61 2.57 2.70 3.70 2.79 2.38 2.26 2.24 1.65 1.76 1.95
1.43 1.40 1.94 1.93 1.65 1.58 2.09 2.12 1.18 1.66 1.79 1.32 1.29 1.24 1.92 2.56 2.14 1.09 0.68 0.31 0.20 0.15 0.16 0.21 0.19 0.39 0.14 0.16 0.21 0.28 0.63 1.33 1.75 1.63 1.80 1.06 1.12 1.11 1.18 1.32 1.32 1.13 1.04 1.01 1.06 1.10 1.33 1.93 2.06 1.77 1.84 2.11 2.30 2.54 3.72 2.97 2.60 3.16 3.62 3.19 2.76 3.36 3.62 3.29 2.73 2.18 2.66 3.17 3.24 2.86 2.84 3.56 2.84 2.35 1.92 1.65 1.82 2.10 2.01 1.63 1.99 1.55 1.42 1.46 1.17
0.98 1.18 1.60 1.56 1.95 1.67 1.84 2.58 2.51 2.57 2.34 2.64 2.93 2.68 2.74 2.64 2.34 2.32 1.97 2.21 1.17 0.51 0.38 0.33 0.39 0.47 0.50 0.30 0.26 0.31 0.57 1.46 1.48 0.74 0.68 0.62 0.64 0.78 0.89 0.87 0.92 1.12 1.41 1.67 1.45 1.09 1.30 1.45 1.30 1.20 1.01 1.32 1.39 1.93 2.60 3.46 2.16 2.70 2.76 2.72 2.89 3.03 2.98 2.50 2.67 3.29 3.20 3.14 4.09 3.14 2.08 1.22 1.21 1.35 1.30 1.32 1.37 1.54 1.72 1.67 1.42 1.48 1.74 1.67 1.37
1.52 1.42 1.26 1.15 0.96 0.94 1.04 1.61 2.17 1.48 1.90 2.58 2.17 1.36 1.10 1.46 0.98 1.48 1.79 1.75 1.40 0.92 0.76 1.02 0.94 1.09 1.16 1.02 0.92 0.85 1.08 1.39 1.71 1.22 0.69 0.66 0.63 0.80 0.90 0.71 0.65 0.59 0.64 0.75 0.79 0.93 1.31 1.86 1.48 1.41 1.29 1.62 1.60 1.86 1.84 2.76 3.73 2.60 2.31 1.97 1.82 1.65 1.63 1.33 1.26 1.44 1.86 2.02 2.41 2.72 2.30 1.67 1.61 1.47 1.48 1.62 1.73 1.69 1.60 1.97 1.75 1.95 1.72 1.57 1.42
1.48 1.23 1.24 1.26 1.07 1.14 1.04 1.24 1.58 1.39 1.39 1.55 2.11 3.03 3.33 2.50 2.62 2.47 2.35 2.03 1.70 1.92 2.24 2.50 2.53 2.54 2.06 2.24 1.74 1.73 1.79 1.54 1.95 2.37 1.38 1.28 1.20 1.46 1.36 1.13 0.73 0.56 0.58 0.66 0.88 0.90 0.96 1.02 1.48 1.77 1.44 1.08 1.50 1.36 1.13 1.22 2.15 2.48 2.26 1.49 1.57 1.59 1.77 2.25 2.34 2.63 2.35 1.90 1.25 1.27 1.30 1.58 1.44 1.21 1.24 1.36 1.48 1.33 1.52 1.48 1.25 1.41 1.59 1.54 1.49
1.01 0.94 0.78 0.70 0.90 1.13 1.38 1.41 1.97 1.70 1.64 1.71 1.55 1.85 1.79 1.72 1.41 1.25 1.32 1.88 1.97 1.86 1.67 2.18 3.02 2.84 3.02 2.66 2.21 1.97 1.77 1.45 2.02 2.46 2.62 1.49 1.73 1.64 1.51 1.14 0.72 0.81 1.09 1.08 1.20 1.23 1.63 2.08 2.16 1.58 0.98 0.99 0.81 0.94 1.79 0.98 0.78 0.98 1.70 1.49 1.00 0.71 0.64 0.63 0.69 0.77 0.93 1.10 0.98 0.81 0.82 0.99 0.88 1.42 1.33 1.27 1.36 1.24 1.69 1.35 1.58 1.56 0.99 1.39 1.20
0.94 1.17 1.07 1.43 1.86 1.11 0.98 0.82 0.87 1.33 1.99 2.05 1.91 1.86 2.03 2.09 2.37 2.23 1.80 1.55 1.69 2.68 2.04 2.23 1.99 1.67 1.35 1.36 1.53 1.44 1.48 1.33 1.45 1.87 2.84 2.60 1.75 1.15 1.02 1.26 1.09 1.20 1.55 1.36 1.58 1.23 1.28 1.04 1.19 1.64 1.64 1.06 1.01 0.85 0.70 0.90 0.60 0.51 0.67 0.94 1.20 1.00 0.64 0.54 0.55 0.60 0.86 0.69 0.78 0.70 0.59 0.67 0.59 0.71 0.83 0.73 0.70 0.81 0.83 0.61 0.61 0.72 1.08 0.97 0.79
0.57 0.57 0.51 0.61 0.78 0.93 0.75 0.91 1.03 1.10 1.04 0.99 1.22 1.58 1.67 1.53 2.41 3.11 2.28 2.28 1.78 1.30 1.32 1.21 1.13 1.01 0.88 0.93 1.08 1.10 1.12 1.04 1.31 0.98 1.58 2.18 2.09 1.45 0.98 1.02 0.98 0.70 1.07 1.42 1.34 1.42 1.39 1.31 1.12 1.22 1.01 1.11 1.08 0.75 0.80 0.93 0.93 0.78 0.60 0.67 0.60 0.43 0.36 0.30 0.26 0.20 0.36 0.47 0.62 0.63 0.56 0.58 0.61 0.57 0.65 0.55 0.50 0.45 0.43 0.47 0.64 0.56 0.71 0.55 0.61